TimeEDT,TemperatureF,Dew PointF,Humidity,Sea Level PressureIn,VisibilityMPH,Wind Direction,Wind SpeedMPH,Gust SpeedMPH,PrecipitationIn,Events,Conditions,WindDirDegrees,DateUTC
12:53 AM,33.1,30.0,89,29.70,6.0,WNW,4.6,-,0.00,Snow,Light Snow,290,2013-03-26 04:53:00
1:53 AM,32.0,28.9,88,29.72,9.0,Calm,Calm,-,0.00,,Overcast,0,2013-03-26 05:53:00
2:53 AM,30.9,28.0,89,29.73,5.0,Calm,Calm,-,N/A,,Overcast,0,2013-03-26 06:53:00
3:22 AM,28.4,26.6,93,29.71,1.5,Calm,Calm,-,N/A,,Overcast,0,2013-03-26 07:22:00
3:30 AM,26.6,26.6,100,29.71,1.0,NW,3.5,-,N/A,,Overcast,310,2013-03-26 07:30:00
3:34 AM,26.6,26.6,100,29.71,2.0,Calm,Calm,-,N/A,,Overcast,0,2013-03-26 07:34:00
3:37 AM,28.4,26.6,93,29.71,3.0,Calm,Calm,-,N/A,,Overcast,0,2013-03-26 07:37:00
3:48 AM,28.4,26.6,93,29.71,2.0,Calm,Calm,-,N/A,,Mostly Cloudy,0,2013-03-26 07:48:00
3:53 AM,28.9,27.0,92,29.74,1.8,Calm,Calm,-,N/A,,Mostly Cloudy,0,2013-03-26 07:53:00
3:58 AM,28.4,26.6,93,29.72,2.5,Calm,Calm,-,N/A,,Scattered Clouds,0,2013-03-26 07:58:00
4:01 AM,26.6,26.6,100,29.72,1.5,Calm,Calm,-,N/A,,Scattered Clouds,0,2013-03-26 08:01:00
4:20 AM,26.6,23.0,86,29.72,0.8,Calm,Calm,-,N/A,,Partly Cloudy,0,2013-03-26 08:20:00
4:27 AM,24.8,23.0,93,29.72,0.2,Calm,Calm,-,N/A,Fog,Light Freezing Fog,0,2013-03-26 08:27:00
4:46 AM,28.4,26.6,93,29.72,1.2,Calm,Calm,-,N/A,,Overcast,0,2013-03-26 08:46:00
4:50 AM,28.4,26.6,93,29.72,2.5,Calm,Calm,-,N/A,,Overcast,0,2013-03-26 08:50:00
4:53 AM,28.0,26.1,92,29.75,2.5,Calm,Calm,-,N/A,,Overcast,0,2013-03-26 08:53:00
5:00 AM,26.6,24.8,93,29.72,6.0,Calm,Calm,-,N/A,,Overcast,0,2013-03-26 09:00:00
5:14 AM,26.6,24.8,93,29.73,2.0,Calm,Calm,-,N/A,,Overcast,0,2013-03-26 09:14:00
5:21 AM,26.6,24.8,93,29.73,1.0,Calm,Calm,-,N/A,,Overcast,0,2013-03-26 09:21:00
5:30 AM,28.4,26.6,93,29.73,2.0,West,3.5,-,N/A,,Overcast,270,2013-03-26 09:30:00
5:37 AM,28.4,26.6,93,29.74,10.0,West,4.6,-,N/A,,Overcast,270,2013-03-26 09:37:00
5:53 AM,28.9,27.0,92,29.77,10.0,Calm,Calm,-,N/A,,Overcast,0,2013-03-26 09:53:00
6:53 AM,26.1,24.1,92,29.78,10.0,Calm,Calm,-,N/A,,Scattered Clouds,0,2013-03-26 10:53:00
7:53 AM,26.1,23.0,88,29.81,8.0,Calm,Calm,-,N/A,,Clear,0,2013-03-26 11:53:00
8:53 AM,35.1,28.9,78,29.83,10.0,West,4.6,-,N/A,,Clear,280,2013-03-26 12:53:00
9:53 AM,37.0,28.9,73,29.84,10.0,West,4.6,-,N/A,,Clear,280,2013-03-26 13:53:00
10:53 AM,39.9,27.0,60,29.86,10.0,NW,6.9,-,N/A,,Mostly Cloudy,320,2013-03-26 14:53:00
11:53 AM,41.0,27.0,57,29.86,10.0,NW,9.2,-,N/A,,Clear,320,2013-03-26 15:53:00
12:53 PM,42.1,27.0,55,29.85,10.0,NW,11.5,-,N/A,,Clear,310,2013-03-26 16:53:00
1:53 PM,46.0,28.9,51,29.85,10.0,West,12.7,-,N/A,,Partly Cloudy,280,2013-03-26 17:53:00
2:53 PM,48.0,26.1,42,29.84,10.0,NW,10.4,18.4,N/A,,Partly Cloudy,310,2013-03-26 18:53:00
3:53 PM,48.0,25.0,41,29.83,10.0,West,6.9,16.1,N/A,,Mostly Cloudy,260,2013-03-26 19:53:00
4:53 PM,48.0,27.0,44,29.84,10.0,WNW,13.8,-,N/A,,Overcast,300,2013-03-26 20:53:00
5:53 PM,43.0,30.9,62,29.87,10.0,NW,5.8,-,0.00,Rain,Light Rain,310,2013-03-26 21:53:00
6:53 PM,43.0,30.9,62,29.88,10.0,WSW,3.5,-,0.00,,Mostly Cloudy,240,2013-03-26 22:53:00
7:53 PM,42.1,30.9,65,29.91,10.0,West,5.8,-,N/A,,Overcast,280,2013-03-26 23:53:00
8:53 PM,41.0,30.0,65,29.93,10.0,West,5.8,-,N/A,,Overcast,270,2013-03-27 00:53:00
9:53 PM,41.0,30.0,65,29.95,10.0,West,8.1,-,N/A,,Overcast,280,2013-03-27 01:53:00
10:53 PM,39.9,28.9,65,29.96,10.0,West,8.1,-,N/A,,Overcast,280,2013-03-27 02:53:00
11:53 PM,39.9,28.0,63,29.97,10.0,WNW,5.8,-,N/A,,Overcast,290,2013-03-27 03:53:00